Regional Weather Roundup
Issued by NWS State College, PA

Home | Current Version | Previous Version | Text Only | Print | Product List | Glossary On
Versions: 1 2 3 4 5 6 7 8 9 10 11 12 13 14 15 16 17 18 19 20 21 22 23 24 25 26 27 28 29 30 31 32 33 34 35 36 37 38 39 40 41 42 43 44 45 46 47 48 49 50
000
ASUS41 KCTP 021810
RWRCTP

REGIONAL WEATHER ROUNDUP
NATIONAL WEATHER SERVICE STATE COLLEGE PA
100 PM EST FRI DEC 02 2016

Note: "fair" indicates few or no clouds below 12,000 feet with no
significant weather and/or obstructions to visibility.

* = STATION THAT DOES NOT REPORT PRECIPITATION /E.G. RAIN...SNOW...ETC/
    THUNDER OR FOG.

PAZ002>004-007>009-013>016-020>023-029>032-021900-
WESTERN PENNSYLVANIA

CITY           SKY/WX    TMP DP  RH WIND       PRES   REMARKS
ERIE           CLOUDY    41  32  70 W17       29.97F
MEADVILLE      CLOUDY    37  30  75 W15G22    29.97F
FRANKLIN*        N/A     36  28  75 W13       29.99F
NEW CASTLE     CLOUDY    39  30  70 W15       30.03F
BEAVER COUNTY  CLOUDY    37  30  75 W14G20    30.03F
BUTLER*        CLOUDY    37  27  65 W10       30.05S
PITTSBURGH INT CLOUDY    39  30  70 W8G17     30.04S
PITTSBURGH     CLOUDY    38  28  67 SW15      30.04S
INDIANA*       CLOUDY    37  30  75 W14       30.02F
LATROBE        CLOUDY    36  32  87 W14G25    30.06F
WASHINGTON CO* CLOUDY    37  28  70 SW12G17   30.07F
$$

PAZ004>006-010>012-017>019-024>028-033>037-041-042-045-046-049>053-021900-
CENTRAL PENNSYLVANIA

CITY           SKY/WX    TMP DP  RH WIND       PRES   REMARKS
BRADFORD       MIX PCPN  34  31  88 W14       29.88F
DUBOIS         CLOUDY    37  29  72 W17G23    29.93F
CLEARFIELD     CLOUDY    39  30  70 SW12G28   29.94F
JOHNSTOWN      CLOUDY    33  27  78 W13G20    29.96F
ALTOONA        CLOUDY    38  27  64 W14G23    30.00F
STATE COLLEGE  CLOUDY    39  28  65 W16G22    29.96S
WILLIAMSPORT   CLOUDY    45  30  55 W16       29.92F
SELINSGROVE    CLOUDY    46  31  55 W8        29.96F
FT INDIANTOWN  MOSUNNY   48  27  43 SW17G25   29.95F
CAPITAL CITY   MOSUNNY   48  26  42 W18G28    29.98F
HARRISBURG     SUNNY     47  29  49 NW18G30   29.98F
YORK           PTSUNNY   45  29  53 NW15      30.00F
$$

PAZ038>040-043-044-047-048-054-055-060>062-067>071-021900-
EASTERN PENNSYLVANIA

CITY           SKY/WX    TMP DP  RH WIND       PRES   REMARKS
SCRANTON       CLOUDY    45  31  58 W14G24    29.87F
MOUNT POCONO   PTSUNNY   39  27  62 W21G33    29.84F
ALLENTOWN      CLOUDY    50  29  44 W17       29.91F
QUAKERTOWN*    MOCLDY    48  28  46 W9        29.92F
READING        MOSUNNY   50  26  39 W17G28    29.93F
LANCASTER      MOSUNNY   48  30  49 W23G33    29.96F
COATESVILLE    CLEAR     46  30  53 W18G26    29.96F
POTTSTOWN      SUNNY     49  29  46 W10G25    29.94F
BLUE BELL      MOSUNNY   48  32  53 NW14G20   29.92F
DOYLESTOWN     MOSUNNY   50  30  46 W12G23    29.91F
WILLOW GROVE   NOT AVBL
NORTH PHILA    SUNNY     51  32  48 W13       29.94F
PHILADELPHIA   PTSUNNY   51  28  41 W16       29.95F
$$




USA.gov is the U.S. government's official web portal to all federal, state and local government web resources and services.